W5IM Weather Reports


Display with metric or nautical units.
time (UTC)temp
F
wind
direction
speed
MPH
gust
MPH
rain 1hr
in
rain 24hr
in
rain mn
in
humidity
%
barometer
mb
20260505073013 71 189 3.0 7.0 0.00 0.00 0.00 92 1008.2
20260505072510 72 186 5.0 7.0 0.00 0.00 0.00 92 1008.1
20260505072011 71 195 5.0 8.0 0.00 0.00 0.00 92 1008.2
20260505071511 72 180 5.0 8.0 0.00 0.00 0.00 92 1008.4
20260505070511 71 178 5.0 7.0 0.00 0.00 0.00 92 1008.5
20260505070011 72 183 5.0 9.0 0.00 0.00 0.00 92 1008.6
20260505065510 71 186 5.0 8.0 0.00 0.00 0.00 92 1008.7
20260505065011 72 187 4.0 8.0 0.00 0.00 0.00 92 1008.8
20260505064510 72 177 6.0 9.0 0.00 0.00 0.00 92 1008.7
20260505064011 72 191 6.0 10.0 0.00 0.00 0.00 92 1008.8
20260505063511 72 195 7.0 10.0 0.00 0.00 0.00 92 1008.8
20260505063010 72 171 6.0 8.0 0.00 0.00 0.00 91 1008.9
20260505062510 72 189 6.0 14.0 0.00 0.00 0.00 91 1009.1
20260505062010 72 187 6.0 9.0 0.00 0.00 0.00 91 1009.2
20260505061510 72 185 7.0 10.0 0.00 0.00 0.00 91 1009.2
20260505061011 72 197 6.0 9.0 0.00 0.00 0.00 91 1009.2
20260505060511 72 188 6.0 9.0 0.00 0.00 0.00 91 1009.2
20260505060010 72 184 6.0 9.0 0.00 0.00 0.00 91 1009.2
20260505055510 72 189 6.0 8.0 0.00 0.00 0.00 91 1009.2
20260505055010 72 184 5.0 8.0 0.00 0.00 0.00 90 1009.4
20260505054011 72 189 5.0 8.0 0.00 0.00 0.00 90 1009.4
20260505053010 72 188 5.0 8.0 0.00 0.00 0.00 90 1009.7
20260505052011 72 188 5.0 8.0 0.00 0.00 0.00 89 1009.6
20260505051511 72 181 6.0 8.0 0.00 0.00 0.00 89 1009.7
20260505051010 73 179 6.0 10.0 0.00 0.00 0.00 89 1009.7
20260505050511 73 185 6.0 8.0 0.00 0.00 0.00 89 1009.8
20260505040010 73 170 6.0 13.0 0.00 0.00 0.00 87 1009.7
20260505035510 73 173 6.0 10.0 0.00 0.00 0.00 87 1009.8
20260505034510 73 176 6.0 10.0 0.00 0.00 0.00 86 1009.6
20260505033010 73 162 7.0 13.0 0.00 0.00 0.00 86 1009.5
20260505032010 73 172 6.0 10.0 0.00 0.00 0.00 85 1009.6
20260505031510 73 177 6.0 10.0 0.00 0.00 0.00 85 1009.7
20260505031010 74 165 6.0 10.0 0.00 0.00 0.00 85 1009.7
20260505030511 74 169 7.0 10.0 0.00 0.00 0.00 84 1009.7
20260505030010 74 169 7.0 12.0 0.00 0.00 0.00 84 1009.8
20260505025511 74 169 5.0 9.0 0.00 0.00 0.00 83 1009.7
20260505025011 74 160 6.0 12.0 0.00 0.00 0.00 83 1009.6
20260505024510 74 160 8.0 13.0 0.00 0.00 0.00 83 1009.6
20260505024011 74 173 8.0 13.0 0.00 0.00 0.00 82 1009.5
20260505023510 74 159 9.0 14.0 0.00 0.00 0.00 82 1009.6
20260505022509 75 169 10.0 16.0 0.00 0.00 0.00 81 1009.4
20260505022010 75 160 10.0 15.0 0.00 0.00 0.00 81 1009.3
20260505021510 75 164 9.0 14.0 0.00 0.00 0.00 81 1009.4
20260505020510 75 159 10.0 16.0 0.00 0.00 0.00 80 1009.3
20260505020009 75 156 9.0 14.0 0.00 0.00 0.00 79 1009.2
20260505015510 75 163 11.0 16.0 0.00 0.00 0.00 79 1009.2
20260505015010 75 166 12.0 16.0 0.00 0.00 0.00 78 1009.1
20260505014511 76 158 12.0 17.0 0.00 0.00 0.00 78 1009.1
20260505014011 76 149 10.0 15.0 0.00 0.00 0.00 77 1009.1
20260505013510 76 166 13.0 17.0 0.00 0.00 0.00 76 1009.0
20260505012510 76 170 10.0 15.0 0.00 0.00 0.00 76 1008.9
20260505011010 77 161 12.0 17.0 0.00 0.00 0.00 74 1008.7
20260505010010 77 150 10.0 16.0 0.00 0.00 0.00 74 1008.9
20260505005510 78 156 10.0 16.0 0.00 0.00 0.00 73 1009.0
20260505005011 78 168 9.0 17.0 0.00 0.00 0.00 73 1008.9
20260505004510 78 151 10.0 16.0 0.00 0.00 0.00 72 1008.9
20260505004010 79 161 9.0 17.0 0.00 0.00 0.00 71 1008.9
20260505003510 79 177 9.0 15.0 0.00 0.00 0.00 71 1008.8
20260505003010 79 170 8.0 15.0 0.00 0.00 0.00 70 1008.8
20260505002510 79 182 7.0 12.0 0.00 0.00 0.00 70 1008.9
20260505002010 79 176 8.0 14.0 0.00 0.00 0.00 70 1008.7
20260505001515 79 169 10.0 16.0 0.00 0.00 0.00 70 1008.7
20260505001010 80 178 8.0 15.0 0.00 0.00 0.00 69 1008.7
20260505000510 80 161 8.0 14.0 0.00 0.00 0.00 69 1008.7
20260504235511 80 181 7.0 15.0 0.00 0.00 0.00 68 1008.8
20260504235010 80 165 7.0 14.0 0.00 0.00 0.00 67 1008.9
20260504234510 81 172 8.0 14.0 0.00 0.00 0.00 67 1009.0
20260504233510 81 177 9.0 17.0 0.00 0.00 0.00 66 1009.1
20260504232510 81 159 9.0 15.0 0.00 0.00 0.00 65 1009.3
20260504231509 81 148 12.0 17.0 0.00 0.00 0.00 65 1009.2
20260504231010 81 157 8.0 14.0 0.00 0.00 0.00 65 1009.3
20260504230510 81 181 9.0 15.0 0.00 0.00 0.00 65 1009.4
20260504230009 81 161 10.0 16.0 0.00 0.00 0.00 65 1009.4
20260504225509 81 150 12.0 18.0 0.00 0.00 0.00 65 1009.3
20260504225010 82 161 8.0 16.0 0.00 0.00 0.00 64 1009.3
20260504223511 82 163 11.0 18.0 0.00 0.00 0.00 64 1009.4
20260504223010 83 151 12.0 18.0 0.00 0.00 0.00 62 1009.5
20260504222011 82 169 11.0 16.0 0.00 0.00 0.00 63 1009.7
20260504221509 82 157 9.0 15.0 0.00 0.00 0.00 63 1009.8
20260504221009 82 160 10.0 16.0 0.00 0.00 0.00 63 1009.7
20260504220510 82 185 7.0 12.0 0.00 0.00 0.00 62 1009.8
20260504220009 83 184 7.0 13.0 0.00 0.00 0.00 62 1009.8
20260504213510 82 179 7.0 13.0 0.00 0.00 0.00 63 1010.0
20260504213010 82 163 6.0 13.0 0.00 0.00 0.00 63 1010.2
20260504212010 82 190 8.0 14.0 0.00 0.00 0.00 62 1010.3
20260504211510 82 193 7.0 10.0 0.00 0.00 0.00 63 1010.3
20260504211010 82 179 8.0 12.0 0.00 0.00 0.00 64 1010.5
20260504210510 81 161 7.0 14.0 0.00 0.00 0.00 65 1010.5
20260504210010 81 187 5.0 12.0 0.00 0.00 0.00 64 1010.8
20260504205509 81 185 7.0 12.0 0.00 0.00 0.00 64 1010.7
20260504204509 81 178 6.0 12.0 0.00 0.00 0.00 65 1010.9
20260504203510 81 202 7.0 10.0 0.00 0.00 0.00 64 1011.0
20260504203011 81 175 6.0 14.0 0.00 0.00 0.00 64 1011.1
20260504202511 81 210 9.0 13.0 0.00 0.00 0.00 63 1011.3
20260504202010 81 188 8.0 14.0 0.00 0.00 0.00 62 1011.1
20260504201510 82 181 6.0 10.0 0.00 0.00 0.00 63 1011.0
20260504201010 81 182 7.0 12.0 0.00 0.00 0.00 63 1011.1
20260504200510 81 199 9.0 13.0 0.00 0.00 0.00 62 1011.1
20260504195510 81 188 6.0 12.0 0.00 0.00 0.00 65 1011.4
20260504195010 80 181 6.0 15.0 0.00 0.00 0.00 66 1011.4
20260504194509 80 153 9.0 15.0 0.00 0.00 0.00 65 1011.4
20260504194010 81 153 9.0 13.0 0.00 0.00 0.00 65 1011.4
20260504193511 81 159 9.0 16.0 0.00 0.00 0.00 64 1011.6
20260504193011 81 159 9.0 15.0 0.00 0.00 0.00 65 1011.7
20260504192510 81 174 10.0 15.0 0.00 0.00 0.00 65 1011.8
20260504192010 81 187 7.0 15.0 0.00 0.00 0.00 64 1011.9
20260504190511 81 164 9.0 13.0 0.00 0.00 0.00 63 1012.0
20260504185510 81 187 9.0 15.0 0.00 0.00 0.00 62 1011.9
20260504185010 82 178 7.0 15.0 0.00 0.00 0.00 61 1011.9
20260504184510 82 186 9.0 14.0 0.00 0.00 0.00 61 1012.0
20260504184010 82 164 8.0 13.0 0.00 0.00 0.00 62 1012.0
20260504183510 81 186 7.0 10.0 0.00 0.00 0.00 62 1012.2
20260504183010 81 197 8.0 14.0 0.00 0.00 0.00 61 1012.1
20260504182510 81 196 8.0 12.0 0.00 0.00 0.00 60 1012.2
20260504182010 81 195 6.0 10.0 0.00 0.00 0.00 62 1012.3
20260504181509 81 201 11.0 15.0 0.00 0.00 0.00 60 1012.5
20260504181011 81 200 9.0 13.0 0.00 0.00 0.00 60 1012.6
20260504180510 82 194 8.0 12.0 0.00 0.00 0.00 59 1012.6
20260504180010 82 178 9.0 14.0 0.00 0.00 0.00 59 1012.5
20260504175509 82 200 9.0 15.0 0.00 0.00 0.00 58 1012.5
20260504175010 81 212 7.0 13.0 0.00 0.00 0.00 60 1012.6
20260504174509 82 165 7.0 13.0 0.00 0.00 0.00 59 1012.6
20260504173510 81 188 11.0 15.0 0.00 0.00 0.00 61 1012.8
20260504173010 81 209 12.0 15.0 0.00 0.00 0.00 61 1012.8
20260504172510 81 194 9.0 14.0 0.00 0.00 0.00 62 1012.9
20260504172009 80 191 10.0 14.0 0.00 0.00 0.00 63 1013.0
20260504171510 81 202 10.0 14.0 0.00 0.00 0.00 62 1013.1
20260504171010 81 195 12.0 18.0 0.00 0.00 0.00 61 1012.9
20260504151010 78 209 11.0 20.0 0.00 0.00 0.00 66 1013.9
20260504150510 78 169 7.0 13.0 0.00 0.00 0.00 70 1013.9
20260504140509 73 172 7.0 12.0 0.00 0.00 0.00 78 1013.9
20260504130510 68 173 6.0 8.0 0.00 0.00 0.00 88 1013.6
20260504100510 64 170 5.0 7.0 0.00 0.00 0.00 88 1014.0
20260504081009 65 163 5.0 7.0 0.00 0.00 0.00 83 1014.7
20260504080509 66 160 6.0 7.0 0.00 0.00 0.00 83 1014.8